CW0699 Weather Reports


time (UTC)temp
C
wind
direction
speed
KPH
gust
KPH
rain 1hr
cm
rain 24hr
cm
rain mn
cm
humidity
%
barometer
mb
20260506123959 18 174 0.0 1.6 0.00 0.00 0.00 81 1016.9
20260506123159 18 252 0.0 1.6 0.00 0.00 0.00 81 1016.7
20260506122358 18 200 0.0 1.6 0.00 0.00 0.00 81 1016.5
20260506121559 18 246 0.0 1.6 0.00 0.00 0.00 81 1016.5
20260506120759 18 271 0.0 1.6 0.00 0.00 0.00 81 1016.3
20260506120004 18 216 0.0 3.2 0.00 0.00 0.00 81 1016.3
20260506115200 17 240 0.0 1.6 0.00 0.00 0.00 81 1016.3
20260506114400 17 259 0.0 1.6 0.00 0.00 0.00 81 1016.2
20260506113600 17 262 0.0 1.6 0.00 0.00 0.00 82 1016.2
20260506112759 17 239 0.0 0.0 0.00 0.00 0.00 82 1016.0
20260506112000 17 239 0.0 0.0 0.00 0.00 0.00 82 1015.9
20260506111200 16 239 0.0 0.0 0.00 0.00 0.00 82 1016.1
20260506110359 16 239 0.0 0.0 0.00 0.00 0.00 82 1016.0
20260506105600 16 239 0.0 0.0 0.00 0.00 0.00 81 1016.0
20260506104759 16 240 0.0 0.0 0.00 0.00 0.00 81 1015.9
20260506104000 16 239 0.0 0.0 0.00 0.00 0.00 81 1015.7
20260506095959 16 139 0.0 0.0 0.00 0.00 0.00 81 1015.0
20260506095158 16 139 0.0 0.0 0.00 0.00 0.00 81 1015.0
20260506094358 16 138 0.0 0.0 0.00 0.00 0.00 81 1015.0
20260506093559 16 138 0.0 0.0 0.00 0.00 0.00 81 1015.1
20260506092758 16 139 0.0 0.0 0.00 0.00 0.00 81 1014.9
20260506091959 16 138 0.0 0.0 0.00 0.00 0.00 81 1014.8
20260506091158 16 135 0.0 0.0 0.00 0.00 0.00 81 1014.6
20260506085558 16 135 0.0 0.0 0.00 0.00 0.00 80 1014.7
20260506084758 16 135 0.0 0.0 0.00 0.00 0.00 79 1014.8
20260506084000 16 193 0.0 0.0 0.00 0.00 0.00 79 1014.8
20260506083158 16 193 0.0 0.0 0.00 0.00 0.00 78 1014.7
20260506082359 16 193 0.0 0.0 0.00 0.00 0.00 78 1014.7
20260506081559 15 193 0.0 0.0 0.00 0.00 0.00 78 1014.6
20260506080758 15 193 0.0 0.0 0.00 0.00 0.00 78 1014.9
20260506072759 15 193 0.0 0.0 0.00 0.00 0.00 76 1015.0
20260506071959 15 193 0.0 0.0 0.00 0.00 0.00 77 1015.1
20260506062400 15 193 0.0 0.0 0.00 0.00 0.00 73 1015.6
20260506061600 15 193 0.0 0.0 0.00 0.00 0.00 72 1015.5
20260506051159 16 193 0.0 0.0 0.00 0.00 0.00 67 1015.2
20260506044801 16 193 0.0 0.0 0.00 0.00 0.00 65 1015.4
20260506043201 16 195 0.0 0.0 0.00 0.00 0.00 64 1015.8
20260506042401 16 195 0.0 0.0 0.00 0.00 0.00 63 1015.8
20260506041602 16 195 0.0 0.0 0.00 0.00 0.00 64 1015.6
20260506040801 16 193 0.0 0.0 0.00 0.00 0.00 64 1015.4
20260506034400 16 193 0.0 0.0 0.00 0.00 0.00 62 1015.4
20260506033600 16 193 0.0 0.0 0.00 0.00 0.00 62 1015.7
20260506032800 16 193 0.0 0.0 0.00 0.00 0.00 61 1015.7
20260506032002 16 193 0.0 0.0 0.00 0.00 0.00 60 1015.6
20260506031200 16 193 0.0 0.0 0.00 0.00 0.00 60 1015.5
20260506030400 16 193 0.0 0.0 0.00 0.00 0.00 60 1015.6
20260506025601 16 193 0.0 0.0 0.00 0.00 0.00 59 1015.7
20260506024801 16 193 0.0 0.0 0.00 0.00 0.00 58 1015.6
20260506024003 17 193 0.0 0.0 0.00 0.00 0.00 56 1015.4
20260506021601 17 193 0.0 0.0 0.00 0.00 0.00 55 1015.5
20260506020802 17 193 0.0 0.0 0.00 0.00 0.00 54 1015.5
20260506015200 17 193 0.0 0.0 0.00 0.00 0.00 53 1015.3
20260506014359 17 193 0.0 0.0 0.00 0.00 0.00 51 1015.3
20260506013601 18 193 0.0 0.0 0.00 0.00 0.00 50 1015.3
20260506012800 18 193 0.0 0.0 0.00 0.00 0.00 50 1015.3
20260506012000 18 193 0.0 0.0 0.00 0.00 0.00 47 1015.4
20260506005600 20 193 0.0 0.0 0.00 0.00 0.00 41 1015.4
20260506004000 21 193 0.0 0.0 0.00 0.00 0.00 37 1015.4
20260506003200 22 193 0.0 1.6 0.00 0.00 0.00 35 1015.5
20260506002400 22 252 0.0 1.6 0.00 0.00 0.00 35 1015.7
20260506001600 22 252 0.0 0.0 0.00 0.00 0.00 35 1015.7
20260506000800 22 218 0.0 1.6 0.00 0.00 0.00 34 1015.5
20260506000004 23 211 0.0 3.2 0.00 0.00 0.00 33 1015.5
20260505234400 23 126 0.0 0.0 0.00 0.00 0.00 32 1015.4
20260505233600 24 124 0.0 1.6 0.00 0.00 0.00 30 1015.5
20260505232800 25 198 0.0 1.6 0.00 0.00 0.00 29 1015.5
20260505232000 26 197 0.0 6.4 0.00 0.00 0.00 27 1015.5
20260505231200 26 264 0.0 3.2 0.00 0.00 0.00 27 1015.4
20260505230400 26 150 0.0 4.8 0.00 0.00 0.00 26 1015.5
20260505225600 27 215 1.6 4.8 0.00 0.00 0.00 25 1015.2
20260505224801 27 176 0.0 3.2 0.00 0.00 0.00 25 1015.2
20260505224001 27 146 1.6 4.8 0.00 0.00 0.00 25 1015.1
20260505223200 27 208 1.6 4.8 0.00 0.00 0.00 25 1015.1
20260505222400 26 100 0.0 6.4 0.00 0.00 0.00 26 1015.2
20260505221601 26 128 0.0 4.8 0.00 0.00 0.00 25 1015.2
20260505220800 26 193 1.6 6.4 0.00 0.00 0.00 25 1015.1
20260505220003 26 134 1.6 4.8 0.00 0.00 0.00 24 1015.1
20260505215200 26 194 1.6 4.8 0.00 0.00 0.00 25 1015.0
20260505214401 26 236 1.6 8.0 0.00 0.00 0.00 25 1015.0
20260505213600 27 199 3.2 6.4 0.00 0.00 0.00 24 1015.2
20260505212800 27 135 1.6 6.4 0.00 0.00 0.00 26 1015.2
20260505211200 26 222 1.6 9.7 0.00 0.00 0.00 28 1015.3
20260505210400 26 126 3.2 9.7 0.00 0.00 0.00 26 1015.2
20260505205601 26 198 3.2 4.8 0.00 0.00 0.00 26 1015.5
20260505204800 26 200 0.0 8.0 0.00 0.00 0.00 28 1015.4
20260505204001 26 243 0.0 4.8 0.00 0.00 0.00 29 1015.4
20260505203200 26 100 1.6 8.0 0.00 0.00 0.00 27 1015.7
20260505202400 26 274 1.6 6.4 0.00 0.00 0.00 28 1015.7
20260505195201 26 4 1.6 8.0 0.00 0.00 0.00 29 1016.0
20260505194359 25 124 0.0 8.0 0.00 0.00 0.00 30 1016.1
20260505193600 25 283 1.6 9.7 0.00 0.00 0.00 29 1016.3
20260505192800 25 151 0.0 8.0 0.00 0.00 0.00 30 1016.3
20260505192001 25 122 1.6 8.0 0.00 0.00 0.00 29 1016.4
20260505191200 25 197 3.2 6.4 0.00 0.00 0.00 31 1016.4
20260505185559 25 219 1.6 4.8 0.00 0.00 0.00 32 1016.6
20260505184800 25 236 1.6 6.4 0.00 0.00 0.00 33 1016.7
20260505183200 25 204 0.0 6.4 0.00 0.00 0.00 35 1016.8
20260505181559 25 197 1.6 6.4 0.00 0.00 0.00 34 1017.1
20260505180800 24 334 1.6 6.4 0.00 0.00 0.00 35 1017.2
20260505175201 24 295 1.6 6.4 0.00 0.00 0.00 33 1017.5
20260505174401 24 194 1.6 8.0 0.00 0.00 0.00 37 1017.7
20260505173603 24 201 0.0 6.4 0.00 0.00 0.00 36 1017.9
20260505172759 23 135 1.6 8.0 0.00 0.00 0.00 37 1017.9
20260505172001 23 126 1.6 9.7 0.00 0.00 0.00 37 1017.8
20260505171200 23 155 3.2 9.7 0.00 0.00 0.00 37 1017.8
20260505170400 23 240 1.6 11.3 0.00 0.00 0.00 36 1017.9
20260505164800 23 214 1.6 9.7 0.00 0.00 0.00 37 1017.9
20260505164002 23 131 1.6 12.9 0.00 0.00 0.00 38 1017.9
20260505163159 23 240 1.6 6.4 0.00 0.00 0.00 39 1017.9
20260505162401 23 139 0.0 4.8 0.00 0.00 0.00 41 1017.9
20260505160800 23 146 1.6 4.8 0.00 0.00 0.00 42 1017.9
20260505152801 23 294 1.6 6.4 0.00 0.00 0.00 43 1018.6
20260505152001 22 264 1.6 4.8 0.00 0.00 0.00 47 1018.5
20260505151159 22 208 1.6 3.2 0.00 0.00 0.00 47 1018.3
20260505124758 11 132 0.0 0.0 0.00 0.00 0.00 72 1016.9